Grafton, ND

5:27 AM CDT on May 26, 2018 (GMT -0500)
Grafton Municipal

Weather History for KGAF - November, 2013

Change the Weather History Date:

Sunday, November 3, 2013

  Actual Average Record
Temperature  
Mean Temperature 42 °F -  
Max Temperature 53 °F 41 °F 68 °F (1981)
Min Temperature 32 °F 26 °F 4 °F (1991)
Degree Days  
Heating Degree Days 22    
Moisture  
Dew Point 32 °F    
Average Humidity 67    
Maximum Humidity 100    
Minimum Humidity 38    
Precipitation  
Precipitation 0.00 in - - ()
Sea Level Pressure  
Sea Level Pressure 29.74 in    
Wind  
Wind Speed 14 mph (SE)    
Max Wind Speed 31 mph    
Max Gust Speed 46 mph    
Visibility 10 miles    
Events      
Averages and records for this station are not official NWS values.
T = Trace of Precipitation, MM = Missing Value Source: NWS Daily Summary

Daily Weather History Graph

Daily Weather History Graph

Search for Another Location

Airport or City:

Astronomy

Nov. 03, 2013 Rise Set
Actual Time 7:18 AM CST 5:06 PM CST
Civil Twilight 6:45 AM CST 5:39 PM CST
Nautical Twilight 6:08 AM CST 6:16 PM CST
Astronomical Twilight 5:32 AM CST 6:52 PM CST
Moon 7:25 AM CST (11/3) 5:19 PM CST (11/3)
Length of Visible Light 10h 53m
Length of Day
9h 47m
New Moon, 0% of the Moon is Illuminated
Nov 3
New Moon
Nov 9
First Quarter
Nov 17
Full
Nov 25
Last Quarter
Dec 2
New

Hourly Weather History & Observations

Time (CST) Temp. Windchill Dew Point Humidity Pressure Visibility Wind Dir Wind Speed Gust Speed Precip Events Conditions
12:15 AM 32.0 °F 24.8 °F 32.0 °F 100% 29.93 in 10.0 mi SSE 8.1 mph - N/A   Clear
12:35 AM 32.0 °F 25.6 °F 32.0 °F 100% 29.92 in 10.0 mi SSE 6.9 mph - N/A   Clear
12:55 AM 35.6 °F 28.0 °F 32.0 °F 87% 29.92 in 10.0 mi South 10.4 mph - N/A   Clear
1:15 AM 35.6 °F 28.6 °F 32.0 °F 87% 29.92 in 10.0 mi South 9.2 mph - N/A   Clear
1:35 AM 35.6 °F 28.6 °F 32.0 °F 87% 29.92 in 10.0 mi SSE 9.2 mph - N/A   Scattered Clouds
1:55 AM 35.6 °F 28.6 °F 32.0 °F 87% 29.92 in 10.0 mi SSE 9.2 mph - N/A   Scattered Clouds
1:15 AM 35.6 °F 28.0 °F 32.0 °F 87% 29.92 in 10.0 mi SSE 10.4 mph - N/A   Partly Cloudy
1:35 AM 35.6 °F 29.2 °F 32.0 °F 87% 29.91 in 10.0 mi SE 8.1 mph - N/A   Partly Cloudy
1:55 AM 35.6 °F 29.2 °F 32.0 °F 87% 29.92 in 10.0 mi SSE 8.1 mph - N/A   Mostly Cloudy
2:15 AM 35.6 °F 29.9 °F 32.0 °F 87% 29.91 in 10.0 mi SSE 6.9 mph - N/A   Mostly Cloudy
2:35 AM 35.6 °F 29.2 °F 32.0 °F 87% 29.91 in 10.0 mi SE 8.1 mph - N/A   Partly Cloudy
2:55 AM 35.6 °F 28.6 °F 32.0 °F 87% 29.90 in 10.0 mi SSE 9.2 mph - N/A   Scattered Clouds
3:15 AM 35.6 °F 28.0 °F 32.0 °F 87% 29.89 in 10.0 mi SSE 10.4 mph - N/A   Scattered Clouds
3:35 AM 35.6 °F 28.6 °F 32.0 °F 87% 29.89 in 10.0 mi SSE 9.2 mph - N/A   Partly Cloudy
3:55 AM 35.6 °F 28.0 °F 32.0 °F 87% 29.87 in 10.0 mi SE 10.4 mph - N/A   Clear
4:15 AM 35.6 °F 28.6 °F 32.0 °F 87% 29.87 in 10.0 mi SE 9.2 mph - N/A   Clear
4:35 AM 35.6 °F 28.0 °F 32.0 °F 87% 29.86 in 10.0 mi SE 10.4 mph - N/A   Mostly Cloudy
4:55 AM 35.6 °F 28.0 °F 32.0 °F 87% 29.86 in 10.0 mi SE 10.4 mph - N/A   Overcast
5:15 AM 35.6 °F 28.0 °F 32.0 °F 87% 29.85 in 10.0 mi SE 10.4 mph - N/A   Partly Cloudy
5:35 AM 37.4 °F 29.8 °F 33.8 °F 87% 29.84 in 10.0 mi SE 11.5 mph - N/A   Clear
5:55 AM 37.4 °F 30.3 °F 33.8 °F 87% 29.83 in 10.0 mi ESE 10.4 mph - N/A   Clear
6:15 AM 37.4 °F 29.8 °F 33.8 °F 87% 29.83 in 10.0 mi ESE 11.5 mph - N/A   Clear
6:35 AM 37.4 °F 29.3 °F 33.8 °F 87% 29.82 in 10.0 mi SE 12.7 mph - N/A   Clear
6:55 AM 37.4 °F 29.8 °F 33.8 °F 87% 29.82 in 10.0 mi SE 11.5 mph - N/A   Clear
7:15 AM 37.4 °F 29.3 °F 32.0 °F 81% 29.81 in 10.0 mi ESE 12.7 mph - N/A   Clear
7:35 AM 37.4 °F 28.9 °F 32.0 °F 81% 29.80 in 10.0 mi ESE 13.8 mph 18.4 mph N/A   Scattered Clouds
7:55 AM 37.4 °F 28.9 °F 32.0 °F 81% 29.80 in 10.0 mi ESE 13.8 mph - N/A   Partly Cloudy
8:15 AM 39.2 °F 30.8 °F 33.8 °F 81% 29.79 in 10.0 mi ESE 15.0 mph 20.7 mph N/A   Mostly Cloudy
8:35 AM 39.2 °F 30.8 °F 33.8 °F 81% 29.77 in 10.0 mi ESE 15.0 mph - N/A   Overcast
8:55 AM 41.0 °F 31.9 °F 32.0 °F 70% 29.76 in 10.0 mi ESE 19.6 mph 26.5 mph N/A   Overcast
9:15 AM 41.0 °F 32.2 °F 32.0 °F 70% 29.75 in 10.0 mi SE 18.4 mph 23.0 mph N/A   Overcast
9:35 AM 44.6 °F 36.4 °F 32.0 °F 61% 29.74 in 10.0 mi SE 20.7 mph 26.5 mph N/A   Mostly Cloudy
9:55 AM 44.6 °F 36.1 °F 32.0 °F 61% 29.73 in 10.0 mi SE 21.9 mph 31.1 mph N/A   Mostly Cloudy
10:15 AM 46.4 °F 37.7 °F 32.0 °F 57% 29.72 in 10.0 mi SE 26.5 mph 34.5 mph N/A   Scattered Clouds
10:35 AM 46.4 °F 38.1 °F 32.0 °F 57% 29.70 in 10.0 mi SE 24.2 mph 31.1 mph N/A   Partly Cloudy
10:55 AM 50.0 °F - 32.0 °F 50% 29.69 in 10.0 mi SE 25.3 mph 32.2 mph N/A   Clear
11:15 AM 50.0 °F - 32.0 °F 50% 29.68 in 10.0 mi SE 28.8 mph 36.8 mph N/A   Clear
11:35 AM 51.8 °F - 32.0 °F 47% 29.67 in 10.0 mi SE 28.8 mph 40.3 mph N/A   Clear
11:55 AM 53.6 °F - 32.0 °F 44% 29.66 in 10.0 mi SSE 31.1 mph 41.4 mph N/A   Clear
12:15 PM 53.6 °F - 32.0 °F 44% 29.65 in 10.0 mi SSE 28.8 mph 39.1 mph N/A   Clear
12:35 PM 53.6 °F - 28.4 °F 38% 29.65 in 10.0 mi SSE 28.8 mph 43.7 mph N/A   Clear
12:55 PM 51.8 °F - 28.4 °F 41% 29.64 in 10.0 mi SSE 29.9 mph 46.0 mph N/A   Clear
1:15 PM 50.0 °F - 30.2 °F 47% 29.63 in 10.0 mi SSE 27.6 mph 35.7 mph N/A   Clear
1:35 PM 53.6 °F - 30.2 °F 41% 29.63 in 10.0 mi SSE 27.6 mph 35.7 mph N/A   Clear
1:55 PM 51.8 °F - 32.0 °F 47% 29.63 in 10.0 mi SSE 26.5 mph 38.0 mph N/A   Clear
2:15 PM 50.0 °F - 32.0 °F 50% 29.62 in 10.0 mi SSE 21.9 mph 33.4 mph N/A   Clear
2:35 PM 51.8 °F - 30.2 °F 44% 29.63 in 10.0 mi SSE 26.5 mph 33.4 mph N/A   Clear
2:55 PM 51.8 °F - 32.0 °F 47% 29.63 in 10.0 mi South 20.7 mph 31.1 mph N/A   Clear
3:15 PM 50.0 °F - 32.0 °F 50% 29.63 in 10.0 mi South 26.5 mph 35.7 mph N/A   Clear
3:35 PM 50.0 °F - 32.0 °F 50% 29.63 in 10.0 mi South 21.9 mph 33.4 mph N/A   Clear
3:55 PM 50.0 °F - 32.0 °F 50% 29.63 in 10.0 mi South 18.4 mph 27.6 mph N/A   Clear
4:15 PM 50.0 °F - 32.0 °F 50% 29.62 in 10.0 mi SSE 18.4 mph 23.0 mph N/A   Clear
4:35 PM 50.0 °F - 32.0 °F 50% 29.63 in 10.0 mi SSE 21.9 mph 27.6 mph N/A   Clear
4:55 PM 50.0 °F - 32.0 °F 50% 29.62 in 10.0 mi SSE 23.0 mph 33.4 mph N/A   Clear
5:15 PM 50.0 °F - 32.0 °F 50% 29.63 in 10.0 mi SSE 18.4 mph 26.5 mph N/A   Clear
5:35 PM 48.2 °F - 32.0 °F 54% 29.63 in 10.0 mi SSE 15.0 mph 21.9 mph N/A   Clear
5:55 PM 48.2 °F - 32.0 °F 54% 29.63 in 10.0 mi SSE 13.8 mph - N/A   Clear
6:15 PM 46.4 °F 41.1 °F 32.0 °F 57% 29.63 in 9.0 mi SE 11.5 mph - N/A   Partly Cloudy
6:35 PM 46.4 °F 41.1 °F 32.0 °F 57% 29.63 in 10.0 mi SE 11.5 mph - N/A   Partly Cloudy
6:55 PM 44.6 °F 38.4 °F 32.0 °F 61% 29.63 in 10.0 mi SE 12.7 mph - N/A   Clear
7:15 PM 44.6 °F 37.4 °F 32.0 °F 61% 29.63 in 10.0 mi SE 16.1 mph - N/A   Clear
7:35 PM 44.6 °F 38.1 °F 32.0 °F 61% 29.63 in 10.0 mi SE 13.8 mph - N/A   Clear
7:55 PM 44.6 °F 37.8 °F 32.0 °F 61% 29.63 in 10.0 mi SE 15.0 mph - N/A   Clear
8:15 PM 44.6 °F 37.8 °F 32.0 °F 61% 29.62 in 10.0 mi SE 15.0 mph - N/A   Clear
8:35 PM 44.6 °F 38.1 °F 32.0 °F 61% 29.63 in 10.0 mi SSE 13.8 mph - N/A   Scattered Clouds
8:55 PM 46.4 °F 40.4 °F 32.0 °F 57% 29.62 in 10.0 mi SE 13.8 mph - N/A   Overcast
9:15 PM 46.4 °F 40.4 °F 32.0 °F 57% 29.62 in 10.0 mi SSE 13.8 mph - N/A   Overcast
9:35 PM 44.6 °F 38.8 °F 32.0 °F 61% 29.62 in 10.0 mi SSE 11.5 mph - N/A   Partly Cloudy
9:55 PM 42.8 °F 36.6 °F 32.0 °F 66% 29.63 in 10.0 mi SSE 11.5 mph - N/A   Clear
10:15 PM 44.6 °F 39.2 °F 32.0 °F 61% 29.63 in 10.0 mi SSE 10.4 mph - N/A   Mostly Cloudy
10:35 PM 46.4 °F 40.7 °F 32.0 °F 57% 29.63 in 10.0 mi SSE 12.7 mph - N/A   Overcast
10:55 PM 46.4 °F 40.7 °F 32.0 °F 57% 29.63 in 10.0 mi SSE 12.7 mph - N/A   Overcast